Погода в Асконе

Швейцария     46°09′15″N   8°46′29″E
темп.,
°C
ветер,
м/с
пор.,
м/с
влажн.,
%
обл.,
%
осадки,
мм/ч
давл.,
гПа
погр.,
м
20 апреля, вт
вт2023:000ссз347188 0.0 101971
02:00−1с3470100 0.0 101975
05:00−1с346696 0.0 101883
08:00+2с23514 0.0 1017164
11:00+10вюв12354 0.0 10141511
14:00+11юв113497 0.0 10122223
17:00+9юз115183 0.3 10131255
20:00+5ю117260 0.8 101410
21 апреля, ср
ср2123:00+2с238231 0.2 101853
02:00+1с2284100 0.2 101941
05:00+2с118372 0.1 101825
08:00+4юв0080100 0.2 1018118
11:00+5ю1282100 0.4 1018520
14:00+9ю2254100 0.9 10161594
17:00+8ю225743 0.6 10151388
20:00+5ю117170 0.7 101712
22 апреля, чт
чт2223:00+3с018338 0.0 101911
02:00+2с118887 0.0 102014
05:00+3с118171 0.0 101947
08:00+4с126815 0.0 1020138
11:00+10ю115032 0.0 10181296
14:00+12ююз124384 0.1 10161748
17:00+12в024424 0.1 10151649
20:00+7ссз23723 0.4 101781
23 апреля, пт
пт2323:00+3с33772 0.0 102162
02:00+2ссз33761 0.0 102247
05:00+1ссз34752 0.0 102364
08:00+4с23631 0.0 1022172
11:00+11всв11360 0.0 10201237
14:00+14ю02292 0.0 10192095
17:00+14сз12343 0.0 10181907
20:00+7сз11742 0.0 102036
24 апреля, сб
сб2423:00+4ссз227333 0.0 102446
02:00+3ссз226743 0.0 102560
05:00+3ссз236922 0.0 102555
08:00+5с12635 0.0 1024127
11:00+11ю22516 0.0 10211163
14:00+14ю33437 0.0 10181507
17:00+13ю225021 0.0 10171058
20:00+8ююз0181100 0.0 101923